www.pogodaiklimat.ru

Погода и климат >> Архив погоды >> Россия >> Оренбургская область >> Оренбург


АРХИВ ПОГОДЫ в Оренбурге

Время (UTC), дата Ветер
(напр.,м/с)
 
Видим.   Явления Облачность Т
(С)
Тd
(С)
f
(%)
Тe
(С)
Тes
(С)
Комфортность P
(гПа)
Po
(гПа)
Тmin
(С)
Tmax
(С)
R
(мм)
R24
(мм)
S
(см)
00 9.07 ЮВ 1 20 км 3/0
[Ac lent Ci fib]
+15.5 +10.7 73 +16 +16 по сезону 1008.6 994.8
03 9.07 В 2 20 км 3/0
[Ac lent Ci fib]
+19.9 +11.2 57 +22 +25 комфорт 1008.7 995.0 +14.7
06 9.07 В 4 20 км 4/0
[Ci fib]
+27.5 +10.1 34 +28 +36 жарко 1007.6 994.3
09 9.07 Ю 3
{10}
20 км 5/4 1500 м
[Cu hum Ci fib]
+33.4 +8.0 21 +32 +40 жарко 1005.5 992.5
12 9.07 ЮЗ 3 20 км 6/6 1500 м
[Cu hum]
+34.8 +5.2 16 +32 +35 жарко 1004.3 991.3
15 9.07 С 2 20 км 8/3 1000 м
[Sc diur, vesp Ci fib]
+32.1 +9.4 25 +31 +32 жарко 1003.9 990.8 +35.0
18 9.07 В 2 20 км 9/3 1000 м
[Sc Ac trans Ci fib]
+26.0 +10.8 39 +27 +27 жарко 1004.2 990.9
21 9.07 Ю 4 20 км 8/0
[Ac trans]
+25.0 +9.5 37 +26 +26 жарко 1003.5 990.2
00 10.07 ЮЗ 6
{12}
20 км 9/9 600 м
[Cb cap]
+26.2 +4.8 25 +25 +25 комфорт 1003.4 990.1
03 10.07 Ю 7-12
{15}
20 км 10/8 1000 м
[Sc Ac trans]
+25.4 +7.7 32 +25 +26 комфорт 1004.5 991.1 +22.7
06 10.07 Ю 1
{13}
20 км 8/5 1000 м
[Sc Ci fib]
+27.4 +10.9 36 +28 +35 жарко 1003.2 990.0
09 10.07 Ю 4 20 км 8/3 600 м
[Cb cap Ci fib]
+30.5 +10.3 29 +30 +37 жарко 1002.6 989.5
12 10.07 ЮЗ 5
{11}
20 км 8/4 600 м
[Cb cap Ci fib]
+31.2 +12.9 33 +32 +35 жарко 1001.4 988.3
15 10.07 ЮЗ 4
{15}
20 км гроза без осадков {ливн. осадки} 9/9 600 м
[Cb cap]
+19.7 +18.1 90 +22 +22 комфорт 1003.6 990.1 +32.0 16
18 10.07 ЮЗ 2 20 км {гроза, ливн. осадки} 6/3 600 м
[Cb cap Ac lent]
+20.5 +17.2 81 +24 +24 комфорт 1004.2 990.7
21 10.07 ЮЗ 2 20 км 3/0
[Ac trans]
+19.0 +12.6 66 +21 +21 комфорт 1005.0 991.4
00 11.07 З 2 20 км 8/0
[Ac trans]
+14.4 +11.5 83 +14 +14 по сезону 1006.3 992.4
03 11.07 штиль 0 20 км 3/0
[Ci sp]
+18.7 +11.8 64 +19 +24 по сезону 1007.3 993.6 +14.0
06 11.07 С 1 20 км 5/0
[Ci sp]
+24.5 +8.8 37 +25 +39 комфорт 1007.8 994.4
09 11.07 ЮЗ 3 20 км 5/3 1000 м
[Cu hum Ci fib]
+27.5 +7.5 28 +27 +36 жарко 1007.9 994.6
12 11.07 СЗ 3 20 км 8/6 1000 м
[Cb cap Ci fib]
+29.0 +7.6 26 +28 +31 жарко 1007.8 994.6
15 11.07 СВ 2 20 км 4/0
[Ac lent Ci fib]
+27.9 +7.3 27 +27 +28 жарко 1007.9 994.6 +29.0
18 11.07 СВ 4 20 км 8/0
[Ac trans]
+22.9 +9.0 41 +24 +24 комфорт 1008.7 995.2
21 11.07 В 2 20 км ясно +20.3 +8.9 48 +22 +22 комфорт 1008.2 994.6
00 12.07 В 3 20 км 3/0
[Ac trans]
+17.2 +11.2 68 +17 +17 по сезону 1007.6 993.8
03 12.07 В 4 20 км 10/0
[Ci fib]
+22.3 +10.5 47 +24 +26 комфорт 1006.9 993.4 +16.9
06 12.07 ЮВ 4 20 км 5/0
[Ci fib]
+30.8 +11.6 31 +31 +39 жарко 1005.9 992.8
09 12.07 ЮВ 3 20 км 8/3 600 м
[Cu hum Ci fib]
+34.5 +11.1 24 +34 +42 очень
жарко
1004.3 991.3
12 12.07 ЮВ 3 20 км 8/4 600 м
[Cu med, cong Ci fib]
+36.4 +11.6 22 +36 +39 очень
жарко
1002.6 989.8
15 12.07 ЮВ 2 20 км 6/3 600 м
[Sc diur, vesp Ci fib]
+35.0 +11.3 24 +35 +35 очень
жарко
1001.1 988.2 +36.6
18 12.07 В 2 20 км 6/0
[Ci fib]
+27.6 +12.3 39 +29 +29 жарко 1000.7 987.5
21 12.07 В 2 20 км 8/0
[Ci fib]
+25.0 +11.4 43 +26 +26 жарко 999.3 986.0
00 13.07 ЮЗ 1
{11}
20 км 10/3 1000 м
[Sc Ci fib]
+23.4 +10.6 44 +25 +25 комфорт 1000.6 987.3
03 13.07 В 3 20 км в посл. час ливневой дождь 10/10 600 м
[Cb cap]
+25.2 +14.1 50 +28 +28 жарко 1001.3 988.0 +22.4 0.0
06 13.07 СВ 3 20 км {ливн. осадки} 10/6 600 м
[Cb calv Ac As Ci fib]
+27.6 +14.8 46 +30 +32 жарко 1000.8 987.6
09 13.07 С 4 20 км в посл. час гроза {ливн. осадки} 10/8 600 м
[Cb cap Ci fib]
+30.2 +18.8 51 +36 +37 очень
душно
1000.3 987.3
12 13.07 СЗ 3 20 км в посл. час гроза {ливн. осадки} 10/6 600 м
[Cb cap As trans Ci fib]
+31.9 +18.1 44 +36 +38 очень
душно
1000.1 987.2
15 13.07 ЮЗ 1
{17}
20 км гроза без осадков {ливн. осадки} 9/9 600 м
[Cb cap]
+23.4 +18.6 74 +30 +30 очень
душно
1001.7 988.3 +34.0 7
18 13.07 ЮЗ 4 20 км {гроза, ливн. осадки} 10/8 600 м
[Cb cap Ci fib]
+24.2 +20.1 78 +30 +30 очень
душно
1003.0 989.6
21 13.07 СЗ 3 20 км 1/0
[Ac trans]
+19.8 +17.4 86 +23 +23 комфорт 1004.3 990.7
00 14.07 ЮЗ 2 20 км 6/6 1000 м
[Sc]
+17.8 +16.4 92 +18 +18 тепло 1005.5 991.8
03 14.07 З 4 20 км 8/0
[Ac As Ci fib]
+17.5 +15.8 90 +17 +19 прохладно 1006.5 992.8 +16.9
06 14.07 СЗ 3 20 км 6/3 600 м
[Cb cap Ac trans]
+22.0 +17.2 74 +26 +32 душно 1006.5 993.0
09 14.07 С 3 20 км 8/1 1000 м
[Cu hum Ci fib]
+25.5 +17.2 60 +29 +40 душно 1005.5 992.2
12 14.07 С 3 20 км 6/1 1000 м
[Cu hum Ac trans Ci fib]
+26.4 +16.1 53 +30 +34 душно 1005.3 992.0
15 14.07 СЗ 5 20 км 9/9 600 м
[Cb cap]
+24.1 +16.4 62 +28 +28 душно 1004.1 990.8 +26.8
18 14.07 З 1 20 км гроза без осадков {ливн. осадки} 9/9 600 м
[Cb calv]
+21.1 +18.5 85 +25 +25 комфорт 1004.0 990.5
21 14.07 С 7
{11}
20 км в посл. час гроза {ливн. осадки} 8/8 600 м
[Cb calv]
+19.1 +17.8 92 +20 +20 тепло 999.2 985.7
00 15.07 З 7-12
{12}
4000 м ливневой дождь 9/9 600 м
[Cb calv]
+17.5 +16.0 91 +17 +17 по сезону 997.4 983.8
03 15.07 З 6
{13}
20 км {ливн. осадки} 9/9 600 м
[Cb cap]
+17.8 +16.2 90 +17 +17 прохладно 996.9 983.4 +17.5 7
06 15.07 З 7 10 км {ливн. осадки} 10/10 600 м
[Cb cap]
+16.9 +15.0 89 +16 +16 очень
холодно
999.8 986.1
09 15.07 З 9-15
{16}
20 км {ливн. осадки} 9/9 600 м
[Cb cap]
+19.7 +13.9 69 +21 +21 комфорт 1003.5 989.9
12 15.07 З 11-17
{20}
20 км {ливн. осадки} 6/5 600 м
[Cb calv Ci fib]
+22.3 +10.8 48 +24 +24 комфорт 1005.4 991.9
15 15.07 З 6
{17}
20 км 1/1 1000 м
[Cu hum]
+21.3 +11.0 52 +23 +23 комфорт 1007.6 994.1 +22.9 0.0
18 15.07 штиль 0 20 км 3/0
[Ac trans]
+17.3 +11.6 69 +17 +17 прохладно 1009.3 995.5
21 15.07 Ю 2 20 км ясно +15.0 +12.0 82 +15 +15 прохладно 1010.2 996.3

 

Местоположение метеостанции Оренбург (Оренбургская область, Россия): широта 51.68 долгота 55.10 высота над уровнем моря 117 м.

В архиве по умолчанию представлена погода в Оренбурге за последнюю неделю. Архивные данные за месяц целиком и за предыдущие месяцы, начиная с января 2011 года, Вы можете получить, выбрав интересующий диапазон дат из раскрывающегося списка и нажав кнопку "Ввод!".


*Определитесь, кто Вы:
робот инопланетянин человек

Внимание! Время в таблицах - всемирное. Для получения местного времени необходимо прибавить поправку, которая равна 5 ч.

Смотрите также архив погоды в соседних городах и на ближайших метеорологических станциях:

Погода в Татарской Каргале (Оренбургская область, Россия) (25 км)
Погода в Соль-Илецк (Оренбургская область, Россия) (59 км)
Погода в Акбулаке (Оренбургская область, Россия) (82 км)
Погода в Новокуйбышевске (Самарская область, Россия) (82 км)
Погода в Беляевке (Оренбургская область, Россия) (96 км)
Погода в Чингирлау (Западно-Казахстанская область, Казахстан) (96 км)
Погода в Новосергиевке (Оренбургская область, Россия) (110 км)
Погода в Троицком Т (Оренбургская область, Россия) (113 км)
Погода в Илеке (Оренбургская область, Россия) (121 км)
Погода в Кумертау (Башкирия, Россия) (129 км)

Пояснения к столбцам:

Ветер - указаны скорость ветра в м/с - средняя за 10 мин, порывы в срок и между сроками (в фигурных скобках) и направление, откуда дует ветер: С - северный, СВ - северо-восточный, В - восточный, ЮВ - юго-восточный, Ю - южный, ЮЗ - юго-западный, З - западный, СЗ - северо-западный.
Видимость - горизонтальная дальность видимости в метрах или километрах. При видимости от 1 до 10 км при отсутствии осадков обычно наблюдается дымка, при ухудшении видимости до 1 км и менее - туман. В сухую погоду видимость может ухудшаться дымом, пылью или мглою.
Явления - указаны атмосферные явления, наблюдавшиеся в срок или в последний час перед сроком; фигурными скобками обозначены явления, наблюдавшиеся между сроками (за 1-3 часа до срока); квадратными скобками обозначены град или гололедные отложения с указанием их диаметра в мм.
Облачность - указаны через наклонную черту общая и нижняя облачность в баллах и высота нижней границы облаков в метрах; квадратными скобками обозначены формы облаков: Ci - перистые, Cs - перисто-слоистые, Cc - перисто-кучевые, Ac - высококучевые, As - высокослоистые, Sc - слоисто-кучевые, Ns - слоисто-дождевые, Cu - кучевые, Cb - кучево-дождевые. Подробнее классификацию облаков см. в Атласе облаков (PDF).
T - Температура воздуха - температура, измеренная на высоте 2 м над землей.
Td - Температура точки росы - температура, при понижении до которой содержащийся в воздухе водяной пар достигнет насыщения.
f - Относительная влажность воздуха - влажноcть воздуха, измеренная на высоте 2 м над землей.
Te - Эффективная температура - температура, которую ощущает одетый по сезону человек в тени. Характеристика душности погоды. При расчете учитывается влияние влажности воздуха и скорости ветра на теплоощущения человека.
Tes - Эффективная температура на солнце - температура, которую ощущает человек, с поправкой на солнечный нагрев. Характеристика знойности погоды. Зависит от высоты солнца над горизонтом, облачности и скорости ветра. Ночью, в пасмурную погоду, а также при ветре 12 м/с и более поправка равна нулю.
P - Атмосферное давление - приведенное к уровню моря атмосферное давление.
Po - Атмосферное давление - измеренное на уровне метеостанции атмосферное давление.
Tmin - Минимальная температура - минимум температуры воздуха на высоте 2 м над землей.
Tmax - Максимальная температура - максимум температуры воздуха на высоте 2 м над землей.
R - Количество осадков - Количество выпавших осадков за период времени, мм. При наведении курсора мыши на число - период времени, за который выпало указанное количество осадков.
R24 - Количество осадков - Количество выпавших осадков за 24 часа, мм.
S - Снежный покров - Высота снежного покрова, см. При наведении курсора мыши на число - состояние снежного покрова и степень покрытия местности в баллах.